sat.trackr.live / text

‹ back to catalog

STARLINK-2354

NORAD 47894 · 2021-021AL

PAYLOAD ACTIVE UNKNOWN

§ Identity

Operator
Country
US
Launch date
2021-03-14
Launch site
AFETR
Launch vehicle
Mass (kg)
RCS (m²)

Purposes: comms

External: N2YO · Heavens-Above · Gunter

§ Orbital elements

Epoch: 2026-05-25T01:14:00.703392Z

Period
93.99 min
Inclination
53.1520°
Eccentricity
0.0001849
Mean motion
15.32126941 rev/d
Perigee alt
468.2 km
Apogee alt
470.7 km
Semi-major
6,847.6 km
B*
9.7450e-4
RAAN
272.9070°
Arg perigee
111.3089°
Mean anomaly
248.8110°
Rev number
28,788

§ Raw data

STARLINK-23541 47894U 21021AL  26145.05139703  .00030405  00000+0  97450-3 0  99932 47894  53.1520 272.9070 0001849 111.3089 248.8110 15.32126941287883

JSON: /api/v1/satellites/47894 · /tle

For live sub-satellite position, see the globe view (requires WebGL).

§ Visibility from observer

Set your observer location to see the next 7 days of passes ≥ 10°. The values pass through the URL so the page stays shareable.

No JS? Fill the form by hand. The geolocation button needs JavaScript.